Location: Bonny Doon Airfield
(37.0704°N, 122.1252°W)
Time: 10:20:48
(UTC-07:00)

OTV 5 (USA 277) - Pass Details

Date: 08 October 2017
Orbit: 404 x 417 km, 43.0° (Epoch: 07 September)

Event Time Altitude Azimuth Distance (km) Brightness Sun altitude
Rises 19:52:38 0° 227° (SW) 2,341 ? -15.1°
Reaches altitude 10° 19:54:48 10° 220° (SW) 1,481 ? -15.5°
Maximum altitude 19:57:59 41° 149° (SSE) 610 ? -16.2°
Enters shadow 19:58:29 38° 123° (ESE) 646 ? -16.3°
